HULIANGWANG DIGUI-09 (62331 NORAD) Tracking and Keplerian Element Data

This shows tracking and keplerian element data for the satellite.

Feedback or suggestion? Click here.




ElementValue
Catalog62331
NameHULIANGWANG DIGUI-09
Epoch Orbit659
Epoch Day34.74502602
Epoch Year2025
RAAN151.8415
Inclination86.505
Eccentricity0.0011775
Argument of Perigee146.1642
Mean Anonmoly214.0253
Mean Motion13.37565545
Decay Rate1.08E-06
L11 62331U 24240J 25034.74502602 .00000108 00000+0 17763-3 0 9992
L22 62331 86.5050 151.8415 0011775 146.1642 214.0253 13.37565545 6592



Live tracking and technical data element details for HULIANGWANG DIGUI-09 (NORAD 62331). HULIANGWANG DIGUI-09 can be tracked NOW for your location showing map with azimuth and elevation plus other details from your city location.







IsCatalogInMostPopularTable: catalog: 62331, numindb: 10
Update: records affected: 1



GetName: 62331 HULIANGWANG DIGUI-09

Hit Count: updated at: Sun, 18 May 2025 22:57:38 GMT